Powrót do katalogu

ATLAS 5 CENTAUR DEB

LostHEO
NORAD 46603·DEBRIS·🇺🇸 United States

Wystrzelony Oct 17, 2018 z Cape Canaveral Space Force Station

Loading…

Następne Przeloty (najbliższe 24 godziny)

TLE

NieaktualneSource: Space-Track

Epoka: Aug 10, 2023, 01:08 UTC

1 46603U 18079CB  23222.04730284 -.00000051  00000-0  00000+0 0  9999
2 46603  11.2931 126.8393 4671449 117.6650 296.8190  1.75099922 20855

Śledź ATLAS 5 CENTAUR DEB w czasie rzeczywistym z AllMySat

Download on the App Store